DW6623 Weather Reports


Display with metric or nautical units.
time (UTC)temp
F
wind
direction
speed
MPH
gust
MPH
rain 1hr
in
rain 24hr
in
rain mn
in
humidity
%
barometer
mb
20260505125028 71 153 11.0 26.0 0.00 0.00 0.00 84 1006.8
20260505124547 71 206 13.0 26.0 0.00 0.00 0.00 84 1006.7
20260505124029 71 165 8.0 20.0 0.00 0.00 0.00 84 1006.7
20260505123529 71 165 12.0 20.0 0.00 0.00 0.00 84 1006.5
20260505123049 71 196 10.0 20.0 0.00 0.00 0.00 85 1006.5
20260505122529 71 206 8.0 19.0 0.00 0.00 0.00 85 1006.5
20260505122031 71 182 8.0 19.0 0.00 0.00 0.00 85 1006.6
20260505121543 71 151 8.0 19.0 0.00 0.00 0.00 85 1006.3
20260505121028 71 150 5.0 16.0 0.00 0.00 0.00 86 1006.4
20260505120528 71 177 10.0 19.0 0.00 0.00 0.00 86 1006.3
20260505120051 71 175 10.0 20.0 0.00 0.00 0.00 86 1006.4
20260505115529 71 155 8.0 21.0 0.00 0.00 0.00 86 1006.4
20260505115029 71 194 9.0 21.0 0.00 0.00 0.00 86 1006.4
20260505114553 71 176 9.0 19.0 0.00 0.00 0.00 86 1006.2
20260505114027 71 173 10.0 29.0 0.00 0.00 0.00 86 1006.1
20260505113526 71 169 13.0 29.0 0.00 0.00 0.00 86 1006.2
20260505113043 71 192 8.0 19.0 0.00 0.00 0.00 86 1006.2
20260505112529 71 180 10.0 21.0 0.00 0.00 0.00 86 1006.1
20260505112124 71 178 6.0 23.0 0.00 0.00 0.00 86 1006.1
20260505111539 71 185 9.0 23.0 0.00 0.00 0.00 86 1005.8
20260505111028 71 180 11.0 22.0 0.00 0.00 0.00 86 1005.8
20260505110528 71 176 12.0 22.0 0.00 0.00 0.00 86 1005.9
20260505102026 71 175 9.0 19.0 0.00 0.00 0.00 85 1006.3
20260505101549 70 190 10.0 21.0 0.00 0.00 0.00 85 1006.3
20260505101029 71 192 11.0 24.0 0.00 0.00 0.00 85 1006.4
20260505100529 71 196 10.0 24.0 0.00 0.00 0.00 85 1006.3
20260505100047 71 207 9.0 21.0 0.00 0.00 0.00 84 1006.4
20260505095529 71 200 10.0 32.0 0.00 0.00 0.00 84 1006.4
20260505095031 71 196 14.0 32.0 0.00 0.00 0.00 84 1006.2
20260505094545 71 189 11.0 26.0 0.00 0.00 0.00 84 1006.3
20260505094028 71 207 9.0 26.0 0.00 0.00 0.00 84 1006.3
20260505093528 71 192 13.0 31.0 0.00 0.00 0.00 84 1006.2
20260505093055 71 160 13.0 31.0 0.00 0.00 0.00 84 1006.0
20260505092529 71 156 14.0 29.0 0.00 0.00 0.00 84 1006.0
20260505092028 71 175 14.0 26.0 0.00 0.00 0.00 83 1006.1
20260505091600 71 169 14.0 26.0 0.00 0.00 0.00 83 1006.1
20260505091028 71 148 11.0 24.0 0.00 0.00 0.00 83 1006.2
20260505090528 71 212 12.0 25.0 0.00 0.00 0.00 83 1006.1
20260505090045 71 181 13.0 25.0 0.00 0.00 0.00 83 1006.1
20260505085531 71 190 12.0 24.0 0.00 0.00 0.00 83 1006.1
20260505085031 71 168 11.0 25.0 0.00 0.00 0.00 83 1006.1
20260505084544 71 201 13.0 25.0 0.00 0.00 0.00 83 1006.2
20260505084028 71 209 10.0 22.0 0.00 0.00 0.00 83 1006.2
20260505083528 71 169 12.0 22.0 0.00 0.00 0.00 83 1006.2
20260505083051 71 180 11.0 25.0 0.00 0.00 0.00 83 1006.2
20260505082533 71 176 13.0 25.0 0.00 0.00 0.00 83 1006.4
20260505082029 71 199 10.0 26.0 0.00 0.00 0.00 83 1006.4
20260505081546 71 166 14.0 26.0 0.00 0.00 0.00 83 1006.6
20260505081029 71 176 14.0 30.0 0.00 0.00 0.00 83 1006.5
20260505080529 71 194 13.0 30.0 0.00 0.00 0.00 83 1006.5
20260505080046 71 184 12.0 21.0 0.00 0.00 0.00 83 1006.6
20260505075528 71 192 11.0 23.0 0.00 0.00 0.00 83 1006.8
20260505075028 71 159 13.0 23.0 0.00 0.00 0.00 83 1006.7
20260505074544 71 178 11.0 24.0 0.00 0.00 0.00 83 1007.0
20260505074029 71 165 10.0 24.0 0.00 0.00 0.00 83 1007.1
20260505073530 71 184 11.0 21.0 0.00 0.00 0.00 83 1007.1
20260505073052 71 171 12.0 24.0 0.00 0.00 0.00 83 1007.2
20260505072529 71 171 12.0 25.0 0.00 0.00 0.00 83 1007.6
20260505072031 71 192 11.0 25.0 0.00 0.00 0.00 82 1007.5
20260505071553 71 178 15.0 24.0 0.00 0.00 0.00 82 1007.5
20260505071031 71 181 10.0 23.0 0.00 0.00 0.00 82 1007.4
20260505070529 71 184 13.0 23.0 0.00 0.00 0.00 82 1007.6
20260505070100 71 184 12.0 26.0 0.00 0.00 0.00 82 1007.6
20260505065529 71 198 10.0 26.0 0.00 0.00 0.00 81 1007.6
20260505065027 71 200 12.0 25.0 0.00 0.00 0.00 81 1007.7
20260505064551 72 177 10.0 26.0 0.00 0.00 0.00 81 1007.8
20260505064031 72 149 12.0 33.0 0.00 0.00 0.00 81 1007.9
20260505063528 72 171 10.0 33.0 0.00 0.00 0.00 81 1008.1
20260505063044 72 187 12.0 21.0 0.00 0.00 0.00 81 1007.9
20260505062531 72 155 9.0 21.0 0.00 0.00 0.00 80 1007.9
20260505062027 72 189 11.0 26.0 0.00 0.00 0.00 80 1007.9
20260505061547 72 158 14.0 26.0 0.00 0.00 0.00 80 1007.8
20260505061027 72 210 10.0 23.0 0.00 0.00 0.00 80 1007.9
20260505060529 72 156 10.0 21.0 0.00 0.00 0.00 79 1007.9
20260505060052 72 159 10.0 22.0 0.00 0.00 0.00 79 1008.0
20260505055530 72 159 12.0 24.0 0.00 0.00 0.00 79 1007.9
20260505055029 72 136 10.0 24.0 0.00 0.00 0.00 79 1008.0
20260505054539 73 188 8.0 18.0 0.00 0.00 0.00 79 1008.1
20260505054028 73 159 8.0 18.0 0.00 0.00 0.00 79 1008.0
20260505053528 73 186 9.0 19.0 0.00 0.00 0.00 78 1008.1
20260505053049 73 174 9.0 19.0 0.00 0.00 0.00 78 1008.1
20260505052528 73 195 7.0 16.0 0.00 0.00 0.00 78 1008.1
20260505052028 73 163 8.0 17.0 0.00 0.00 0.00 78 1008.1
20260505051557 73 140 6.0 19.0 0.00 0.00 0.00 78 1008.1
20260505051028 73 177 9.0 19.0 0.00 0.00 0.00 78 1008.1
20260505050532 73 180 8.0 19.0 0.00 0.00 0.00 78 1008.0
20260505041543 73 175 6.0 15.0 0.00 0.00 0.00 77 1008.1
20260505041029 73 163 7.0 12.0 0.00 0.00 0.00 77 1008.2
20260505040529 73 165 7.0 15.0 0.00 0.00 0.00 77 1008.1
20260505040047 73 175 7.0 15.0 0.00 0.00 0.00 77 1008.2
20260505035532 73 152 8.0 15.0 0.00 0.00 0.00 76 1008.0
20260505035029 73 142 8.0 15.0 0.00 0.00 0.00 76 1008.0
20260505034546 73 172 5.0 11.0 0.00 0.00 0.00 76 1008.0
20260505034026 73 165 6.0 11.0 0.00 0.00 0.00 76 1008.1
20260505033528 73 158 6.0 11.0 0.00 0.00 0.00 76 1008.1
20260505033045 73 179 6.0 11.0 0.00 0.00 0.00 75 1008.3
20260505032529 73 150 5.0 13.0 0.00 0.00 0.00 75 1008.3
20260505032029 73 172 6.0 13.0 0.00 0.00 0.00 75 1008.3
20260505031552 73 154 6.0 15.0 0.00 0.00 0.00 75 1008.0
20260505031028 73 136 7.0 15.0 0.00 0.00 0.00 74 1008.0
20260505030528 73 177 6.0 12.0 0.00 0.00 0.00 74 1008.0
20260505030047 74 161 6.0 12.0 0.00 0.00 0.00 74 1008.1
20260505025529 74 142 6.0 12.0 0.00 0.00 0.00 73 1008.1
20260505025027 74 136 6.0 13.0 0.00 0.00 0.00 73 1007.9
20260505024549 74 167 5.0 13.0 0.00 0.00 0.00 73 1007.8
20260505024028 74 209 5.0 11.0 0.00 0.00 0.00 73 1007.8
20260505023528 74 157 6.0 14.0 0.00 0.00 0.00 73 1008.0
20260505023051 74 136 6.0 14.0 0.00 0.00 0.00 72 1007.9
20260505022529 74 149 8.0 14.0 0.00 0.00 0.00 72 1007.7
20260505022029 75 148 6.0 11.0 0.00 0.00 0.00 71 1007.8
20260505021545 75 154 5.0 12.0 0.00 0.00 0.00 71 1007.7
20260505021029 75 156 7.0 12.0 0.00 0.00 0.00 71 1007.8
20260505020528 75 144 6.0 12.0 0.00 0.00 0.00 71 1007.8
20260505020046 75 148 6.0 12.0 0.00 0.00 0.00 71 1007.8
20260505015528 75 120 5.0 10.0 0.00 0.00 0.00 71 1007.8
20260505015029 75 124 5.0 10.0 0.00 0.00 0.00 71 1007.7
20260505014546 75 139 6.0 10.0 0.00 0.00 0.00 70 1007.8
20260505014029 75 153 5.0 9.0 0.00 0.00 0.00 70 1007.7
20260505013528 75 165 5.0 10.0 0.00 0.00 0.00 69 1007.7
20260505013059 76 140 5.0 10.0 0.00 0.00 0.00 69 1007.6
20260505012528 76 138 5.0 9.0 0.00 0.00 0.00 68 1007.7
20260505012028 76 156 4.0 10.0 0.00 0.00 0.00 68 1007.7
20260505011547 76 184 5.0 11.0 0.00 0.00 0.00 67 1007.6
20260505011028 77 155 6.0 12.0 0.00 0.00 0.00 67 1007.8
20260505010525 77 169 4.0 17.0 0.00 0.00 0.00 66 1007.8
20260505010055 77 132 7.0 17.0 0.00 0.00 0.00 66 1007.7
20260505005529 77 135 6.0 12.0 0.00 0.00 0.00 66 1007.6
20260505005029 77 179 7.0 12.0 0.00 0.00 0.00 65 1007.8
20260505004545 78 162 7.0 16.0 0.00 0.00 0.00 65 1007.9
20260505004028 78 167 7.0 17.0 0.00 0.00 0.00 65 1007.8
20260505003533 78 174 8.0 17.0 0.00 0.00 0.00 64 1007.8
20260505003042 78 163 7.0 17.0 0.00 0.00 0.00 64 1007.8
20260505002526 78 186 6.0 18.0 0.00 0.00 0.00 63 1007.8
20260505002026 79 187 10.0 18.0 0.00 0.00 0.00 63 1007.9
20260505001540 79 127 7.0 21.0 0.00 0.00 0.00 63 1007.9
20260505001029 79 177 12.0 21.0 0.00 0.00 0.00 62 1007.9
20260505000531 79 182 9.0 17.0 0.00 0.00 0.00 62 1007.9
20260505000051 79 146 7.0 26.0 0.00 0.00 0.00 62 1008.0
20260504235526 79 154 14.0 26.0 0.00 0.00 0.00 62 1008.0
20260504235026 79 175 8.0 18.0 0.00 0.00 0.00 62 1008.1
20260504234544 79 180 8.0 20.0 0.00 0.00 0.00 62 1008.1
20260504234031 79 175 10.0 24.0 0.00 0.00 0.00 61 1008.0
20260504233526 80 159 10.0 29.0 0.00 0.00 0.00 61 1008.2
20260504233047 80 168 14.0 29.0 0.00 0.00 0.00 60 1008.1
20260504232527 80 202 16.0 28.0 0.00 0.00 0.00 60 1008.1
20260504232027 80 196 11.0 25.0 0.00 0.00 0.00 60 1008.2
20260504231543 80 169 11.0 24.0 0.00 0.00 0.00 60 1008.3
20260504231028 80 185 13.0 27.0 0.00 0.00 0.00 60 1008.2
20260504230526 80 171 11.0 27.0 0.00 0.00 0.00 59 1008.3
20260504230044 80 159 11.0 22.0 0.00 0.00 0.00 59 1008.5
20260504225528 80 169 14.0 26.0 0.00 0.00 0.00 59 1008.4
20260504225025 80 184 15.0 28.0 0.00 0.00 0.00 59 1008.3
20260504224538 80 176 14.0 28.0 0.00 0.00 0.00 58 1008.5
20260504224028 80 165 13.0 30.0 0.00 0.00 0.00 59 1008.6
20260504223526 80 195 15.0 30.0 0.00 0.00 0.00 59 1008.6
20260504223044 80 179 14.0 28.0 0.00 0.00 0.00 59 1008.8
20260504222530 80 196 15.0 25.0 0.00 0.00 0.00 58 1008.7
20260504222026 80 186 13.0 26.0 0.00 0.00 0.00 58 1008.7
20260504221544 81 166 12.0 27.0 0.00 0.00 0.00 57 1008.8
20260504221026 81 160 13.0 27.0 0.00 0.00 0.00 57 1008.9
20260504220526 81 180 13.0 25.0 0.00 0.00 0.00 57 1008.8
20260504220047 81 129 11.0 31.0 0.00 0.00 0.00 57 1008.8
20260504215529 81 205 12.0 31.0 0.00 0.00 0.00 57 1008.9
20260504215029 81 200 13.0 30.0 0.00 0.00 0.00 56 1009.0
20260504214545 81 178 12.0 22.0 0.00 0.00 0.00 56 1009.0
20260504214026 81 221 9.0 24.0 0.00 0.00 0.00 57 1009.1
20260504213531 81 164 12.0 24.0 0.00 0.00 0.00 56 1009.1
20260504213042 81 153 11.0 23.0 0.00 0.00 0.00 56 1009.1
20260504212528 82 167 12.0 25.0 0.00 0.00 0.00 55 1009.4
20260504212029 82 142 13.0 25.0 0.00 0.00 0.00 56 1009.5
20260504211551 81 145 11.0 29.0 0.00 0.00 0.00 56 1009.7
20260504211027 81 167 13.0 29.0 0.00 0.00 0.00 56 1009.4
20260504210526 81 175 17.0 27.0 0.00 0.00 0.00 55 1009.5
20260504210050 81 178 13.0 26.0 0.00 0.00 0.00 55 1009.9
20260504205527 81 211 13.0 26.0 0.00 0.00 0.00 55 1009.8
20260504205027 82 201 14.0 23.0 0.00 0.00 0.00 54 1010.0
20260504204543 81 180 12.0 27.0 0.00 0.00 0.00 54 1010.0
20260504204028 81 146 11.0 27.0 0.00 0.00 0.00 54 1010.2
20260504203532 81 184 13.0 24.0 0.00 0.00 0.00 54 1010.4
20260504203046 81 216 13.0 28.0 0.00 0.00 0.00 54 1010.4
20260504202528 81 177 12.0 28.0 0.00 0.00 0.00 54 1010.8
20260504202027 82 192 10.0 21.0 0.00 0.00 0.00 54 1010.8
20260504201550 81 195 8.0 24.0 0.00 0.00 0.00 54 1010.8
20260504201026 81 169 9.0 24.0 0.00 0.00 0.00 54 1011.0
20260504200528 81 224 13.0 24.0 0.00 0.00 0.00 53 1011.0
20260504200048 81 173 13.0 27.0 0.00 0.00 0.00 53 1011.0
20260504195526 81 190 11.0 29.0 0.00 0.00 0.00 53 1011.1
20260504195027 80 165 13.0 29.0 0.00 0.00 0.00 53 1011.1
20260504194550 80 134 15.0 29.0 0.00 0.00 0.00 53 1011.3
20260504194026 80 360 15.0 29.0 0.00 0.00 0.00 53 1011.3
20260504193528 80 191 15.0 27.0 0.00 0.00 0.00 51 1011.5
20260504193046 80 205 13.0 26.0 0.00 0.00 0.00 52 1011.6
20260504192526 80 154 12.0 26.0 0.00 0.00 0.00 52 1011.7
20260504192029 80 195 14.0 25.0 0.00 0.00 0.00 51 1011.7
20260504191555 80 150 14.0 27.0 0.00 0.00 0.00 51 1012.0
20260504191026 80 164 11.0 27.0 0.00 0.00 0.00 51 1012.1
20260504190531 80 161 12.0 23.0 0.00 0.00 0.00 51 1012.1
20260504190047 80 198 13.0 30.0 0.00 0.00 0.00 50 1012.2
20260504185529 79 171 14.0 30.0 0.00 0.00 0.00 50 1012.3
20260504185026 80 165 10.0 27.0 0.00 0.00 0.00 50 1012.3
20260504184602 79 167 11.0 27.0 0.00 0.00 0.00 51 1012.3
20260504184027 79 159 11.0 25.0 0.00 0.00 0.00 50 1012.5
20260504183529 79 177 10.0 24.0 0.00 0.00 0.00 51 1012.5
20260504183046 79 148 11.0 30.0 0.00 0.00 0.00 51 1012.5
20260504182531 78 140 14.0 30.0 0.00 0.00 0.00 49 1012.5
20260504182026 79 190 11.0 26.0 0.00 0.00 0.00 50 1012.6
20260504181548 79 171 8.0 23.0 0.00 0.00 0.00 50 1012.6
20260504181029 78 182 12.0 23.0 0.00 0.00 0.00 50 1012.5
20260504180527 78 213 13.0 25.0 0.00 0.00 0.00 51 1012.7
20260504180052 78 130 13.0 27.0 0.00 0.00 0.00 51 1012.9
20260504175529 78 175 16.0 27.0 0.00 0.00 0.00 49 1013.1
20260504175027 78 138 13.0 24.0 0.00 0.00 0.00 48 1013.1
20260504174546 77 175 10.0 23.0 0.00 0.00 0.00 51 1013.2
20260504174029 77 187 9.0 25.0 0.00 0.00 0.00 50 1013.4
20260504173529 77 184 12.0 26.0 0.00 0.00 0.00 48 1013.5
20260504173046 77 212 13.0 29.0 0.00 0.00 0.00 48 1013.5
20260504172528 77 175 16.0 29.0 0.00 0.00 0.00 46 1013.5
20260504172028 77 248 12.0 28.0 0.00 0.00 0.00 46 1013.7
20260504171547 77 194 13.0 28.0 0.00 0.00 0.00 49 1013.7
20260504171033 76 173 13.0 26.0 0.00 0.00 0.00 50 1013.9
20260504170531 76 215 12.0 27.0 0.00 0.00 0.00 51 1013.8
20260504151027 71 118 11.0 25.0 0.00 0.00 0.00 62 1014.8
20260504150529 70 181 13.0 25.0 0.00 0.00 0.00 62 1014.9
20260504141026 66 173 13.0 27.0 0.00 0.00 0.00 70 1015.2
20260504140526 66 176 15.0 27.0 0.00 0.00 0.00 70 1015.2
20260504140105 66 196 10.0 23.0 0.00 0.00 0.00 71 1015.2